Weather History for KBIX - January, 2013

Change the Weather History Date:

Thursday, January 3, 2013

  Actual Average Record
Temperature  
Mean Temperature 43 °F -  
Max Temperature 48 °F 61 °F 73 °F (1952)
Min Temperature 37 °F 45 °F 19 °F (1979)
Degree Days  
Heating Degree Days 22    
Moisture  
Dew Point 39 °F    
Average Humidity 86    
Maximum Humidity 100    
Minimum Humidity 48    
Precipitation  
Precipitation 0.31 in - - ()
Sea Level Pressure  
Sea Level Pressure 30.26 in    
Wind  
Wind Speed 10 mph (NNE)    
Max Wind Speed 16 mph    
Max Gust Speed 23 mph    
Visibility 10 miles    
Events Rain    
Averages and records for this station are not official NWS values.
T = Trace of Precipitation, MM = Missing Value Source: NWS Daily Summary

Daily Weather History Graph

Daily Weather History Graph

Search for Another Location

Airport or City:

Trip Planner

Search our weather history database for the weather conditions in past years. The results will help you decide how hot, cold, wet, or windy it might be!

Date:

Astronomy

Jan. 03, 2013 Rise Set
Actual Time 6:53 AM CST 5:07 PM CST
Civil Twilight 6:26 AM CST 5:34 PM CST
Nautical Twilight 5:56 AM CST 6:04 PM CST
Astronomical Twilight 5:27 AM CST 6:33 PM CST
Moon 11:13 PM CST (1/3) 10:31 AM CST (1/3)
Length of Visible Light 11h 07m
Length of Day
10h 14m
Waning Gibbous, 65% of the Moon is Illuminated
Jan 3
Waning Gibbous
Jan 4
Last Quarter
Jan 11
New
Jan 18
First Quarter
Jan 26
Full

Hourly Weather History & Observations

Time (CST) Temp. Windchill Dew Point Humidity Pressure Visibility Wind Dir Wind Speed Gust Speed Precip Events Conditions
12:04 AM 44.6 °F 40.2 °F 42.8 °F 93% 30.20 in 8.0 mi NNE 8.1 mph - N/A Rain Light Rain
12:18 AM 44.6 °F 40.7 °F 42.8 °F 93% 30.20 in 8.0 mi NNE 6.9 mph - N/A Rain Light Rain
12:22 AM 44.6 °F 40.7 °F 42.8 °F 93% 30.20 in 7.0 mi NNE 6.9 mph - N/A Rain Light Rain
12:49 AM 44.6 °F 39.2 °F 42.8 °F 93% 30.22 in 7.0 mi North 10.4 mph - N/A Rain Light Rain
12:55 AM 44.1 °F 39.0 °F 42.8 °F 95% 30.22 in 6.0 mi North 9.2 mph - 0.09 in Rain Light Rain
12:56 AM 44.6 °F 39.7 °F 42.8 °F 93% 30.22 in 7.0 mi North 9.2 mph - N/A Rain Light Rain
12:58 AM 44.6 °F 39.2 °F 42.8 °F 93% 30.22 in 7.0 mi North 10.4 mph - N/A Rain Light Rain
1:03 AM 44.6 °F 39.2 °F 42.8 °F 93% 30.22 in 9.0 mi North 10.4 mph - N/A Rain Light Rain
1:27 AM 44.6 °F 39.2 °F 42.8 °F 93% 30.22 in 9.0 mi North 10.4 mph - N/A Rain Light Rain
1:29 AM 44.6 °F 39.2 °F 42.8 °F 93% 30.22 in 9.0 mi North 10.4 mph - N/A Rain Light Rain
1:34 AM 44.6 °F 38.8 °F 42.8 °F 93% 30.22 in 10.0 mi NNE 11.5 mph - N/A Rain Light Rain
1:55 AM 43.7 °F 38.1 °F 42.4 °F 95% 30.20 in 10.0 mi NNE 10.4 mph - 0.07 in Rain Light Rain
2:22 AM 42.8 °F 36.6 °F 41.0 °F 93% 30.20 in 10.0 mi NNE 11.5 mph - N/A Rain Light Rain
2:36 AM 42.8 °F 37.0 °F 41.0 °F 93% 30.21 in 10.0 mi NNE 10.4 mph - N/A Rain Light Rain
2:49 AM 42.8 °F 36.6 °F 41.0 °F 93% 30.21 in 10.0 mi NNE 11.5 mph - N/A Rain Light Rain
2:55 AM 43.2 °F 37.0 °F 41.5 °F 94% 30.21 in 10.0 mi NNE 11.5 mph - 0.03 in Rain Light Rain
3:23 AM 42.8 °F 38.6 °F 41.0 °F 93% 30.22 in 10.0 mi NNE 6.9 mph - N/A Rain Light Rain
3:55 AM 43.0 °F 38.2 °F 41.2 °F 93% 30.22 in 10.0 mi NNE 8.1 mph - 0.02 in Rain Light Rain
3:57 AM 42.8 °F 37.5 °F 41.0 °F 93% 30.22 in 10.0 mi NNE 9.2 mph - N/A Rain Light Rain
4:33 AM 42.8 °F 37.0 °F 41.0 °F 93% 30.24 in 10.0 mi NNE 10.4 mph - N/A Rain Light Rain
4:35 AM 42.8 °F 37.5 °F 41.0 °F 93% 30.24 in 10.0 mi NNE 9.2 mph - N/A Rain Light Rain
4:44 AM 42.8 °F 37.5 °F 41.0 °F 93% 30.24 in 10.0 mi North 9.2 mph - N/A Rain Light Rain
4:55 AM 42.6 °F 36.3 °F 41.0 °F 94% 30.24 in 10.0 mi North 11.5 mph - 0.03 in Rain Light Rain
5:04 AM 42.8 °F 38.6 °F 41.0 °F 93% 30.24 in 10.0 mi NNE 6.9 mph - N/A Rain Light Rain
5:25 AM 42.8 °F 38.6 °F 41.0 °F 93% 30.23 in 10.0 mi NE 6.9 mph - N/A Rain Light Rain
5:32 AM 42.8 °F 37.5 °F 41.0 °F 93% 30.24 in 10.0 mi NNE 9.2 mph - N/A Rain Light Rain
5:36 AM 42.8 °F 38.0 °F 41.0 °F 93% 30.24 in 10.0 mi NNE 8.1 mph - N/A Rain Light Rain
5:47 AM 42.8 °F 37.0 °F 41.0 °F 93% 30.25 in 10.0 mi North 10.4 mph - N/A Rain Light Rain
5:55 AM 42.3 °F 35.5 °F 40.8 °F 95% 30.25 in 9.0 mi North 12.7 mph - 0.04 in Rain Light Rain
6:17 AM 42.8 °F 35.8 °F 41.0 °F 93% 30.27 in 10.0 mi North 13.8 mph - N/A Rain Light Rain
6:20 AM 42.8 °F 36.2 °F 41.0 °F 93% 30.26 in 10.0 mi North 12.7 mph - N/A Rain Light Rain
6:21 AM 42.8 °F 35.8 °F 41.0 °F 93% 30.26 in 10.0 mi North 13.8 mph - N/A Rain Light Rain
6:24 AM 42.8 °F 36.6 °F 41.0 °F 93% 30.26 in 10.0 mi North 11.5 mph - N/A Rain Light Rain
6:36 AM 41.0 °F 35.2 °F 39.2 °F 93% 30.26 in 10.0 mi NNE 9.2 mph 19.6 mph N/A Rain Light Rain
6:43 AM 41.0 °F 35.2 °F 39.2 °F 93% 30.26 in 10.0 mi NNE 9.2 mph - N/A Rain Light Rain
6:46 AM 41.0 °F 36.4 °F 39.2 °F 93% 30.26 in 10.0 mi North 6.9 mph - N/A Rain Light Rain
6:50 AM 41.0 °F 37.1 °F 39.2 °F 93% 30.26 in 10.0 mi NNE 5.8 mph - N/A Rain Light Rain
6:51 AM 41.0 °F 36.4 °F 41.0 °F 100% 30.27 in 10.0 mi North 6.9 mph - N/A Rain Light Rain
6:54 AM 41.0 °F 34.3 °F 41.0 °F 100% 30.27 in 10.0 mi North 11.5 mph - N/A   Overcast
6:55 AM 41.7 °F 35.2 °F 40.1 °F 94% 30.27 in 10.0 mi North 11.5 mph - 0.03 in   Overcast
7:02 AM 41.0 °F 34.7 °F 41.0 °F 100% 30.26 in 10.0 mi North 10.4 mph - N/A   Overcast
7:03 AM 41.0 °F 35.2 °F 41.0 °F 100% 30.26 in 10.0 mi North 9.2 mph - N/A   Overcast
7:08 AM 41.0 °F 35.8 °F 39.2 °F 93% 30.25 in 10.0 mi NNE 8.1 mph - N/A   Overcast
7:18 AM 41.0 °F 34.3 °F 39.2 °F 93% 30.27 in 10.0 mi North 11.5 mph - N/A   Overcast
7:55 AM 41.0 °F 33.1 °F 39.2 °F 93% 30.28 in 10.0 mi North 15.0 mph - N/A   Overcast
8:04 AM 41.0 °F 34.3 °F 39.2 °F 93% 30.28 in 10.0 mi North 11.5 mph - N/A   Overcast
8:13 AM 41.0 °F 33.9 °F 39.2 °F 93% 30.28 in 10.0 mi NNE 12.7 mph - N/A   Overcast
8:55 AM 41.2 °F 33.7 °F 37.8 °F 88% 30.30 in 10.0 mi North 13.8 mph - N/A   Overcast
9:27 AM 42.8 °F 36.6 °F 39.2 °F 87% 30.30 in 10.0 mi North 11.5 mph - N/A   Overcast
9:30 AM 42.8 °F 35.8 °F 39.2 °F 87% 30.30 in 10.0 mi North 13.8 mph - N/A   Overcast
9:55 AM 42.3 °F 35.1 °F 38.3 °F 86% 30.31 in 10.0 mi North 13.8 mph - N/A   Overcast
10:04 AM 42.8 °F 35.8 °F 37.4 °F 81% 30.31 in 10.0 mi North 13.8 mph - N/A   Overcast
10:55 AM 45.3 °F 38.4 °F 36.5 °F 71% 30.30 in 10.0 mi North 16.1 mph 23.0 mph N/A   Mostly Cloudy
11:55 AM 47.3 °F - 34.9 °F 62% 30.28 in 10.0 mi North 11.5 mph - N/A   Overcast
12:55 PM 46.6 °F - 33.4 °F 60% 30.26 in 10.0 mi North 13.8 mph - N/A   Overcast
1:55 PM 47.1 °F - 30.2 °F 52% 30.26 in 10.0 mi NNE 11.5 mph - N/A   Scattered Clouds
2:55 PM 48.0 °F - 30.2 °F 50% 30.25 in 10.0 mi NNE 11.5 mph - N/A   Clear
3:55 PM 48.6 °F - 29.8 °F 48% 30.27 in 10.0 mi North 13.8 mph - N/A   Clear
4:55 PM 46.4 °F 41.9 °F 29.8 °F 53% 30.30 in 10.0 mi NNE 9.2 mph - N/A   Clear
5:55 PM 44.1 °F 39.5 °F 29.5 °F 57% 30.33 in 10.0 mi North 8.1 mph - N/A   Clear
6:55 PM 42.3 °F 38.6 °F 30.0 °F 62% 30.35 in 10.0 mi NNE 5.8 mph - N/A   Clear
7:55 PM 40.8 °F 36.9 °F 30.0 °F 65% 30.36 in 10.0 mi NNE 5.8 mph - N/A   Clear
8:55 PM 39.7 °F 36.5 °F 29.5 °F 67% 30.37 in 10.0 mi NNE 4.6 mph - N/A   Clear
9:55 PM 38.7 °F 33.6 °F 30.0 °F 71% 30.38 in 10.0 mi North 6.9 mph - N/A   Clear
10:55 PM 38.1 °F 32.9 °F 28.8 °F 69% 30.39 in 10.0 mi North 6.9 mph - N/A   Clear
11:55 PM 37.4 °F 32.8 °F 28.8 °F 71% 30.37 in 10.0 mi NNE 5.8 mph - N/A   Clear